Погода в Кожанке

Украина / Киевская область     49°58′31″N   29°46′02″E
темп.,
°C
ветер,
м/с
пор.,
м/с
влажн.,
%
обл.,
%
осадки,
мм/ч
давл.,
гПа
погр.,
м
7 мая, пт
пт700:00+8юз2262100 0.0 101320
03:00+7ююз346828 0.0 101452
06:00+5ююз347791 0.0 101469
09:00+10ю476698 0.0 1013347
12:00+16ю71154100 0.0 10111738
15:00+14ю81377100 0.8 1009960
18:00+14зюз5978100 1.9 1007446
21:00+11ю3697100 3.2 1007202
8 мая, сб
сб800:00+11юз51096100 1.6 1006420
03:00+10зсз51190100 2.4 1007538
06:00+9зсз81390100 0.7 1008757
09:00+8зсз8118084 1.1 1011992
12:00+9з10146341 0.1 10131633
15:00+5зсз101481100 0.2 10151080
18:00+10сз710625 0.1 10161881
21:00+6зсз5117676 0.1 1019393
9 мая, вс
вс900:00+4зсз410875 0.0 1021307
03:00+2зсз48915 0.0 1023183
06:00+2зсз38940 0.0 1024172
09:00+8сз46690 0.0 1026556
12:00+12сз46535 0.0 10261653
15:00+14сз454532 0.0 10252078
18:00+14сз23457 0.0 10261971
21:00+8зсз11625 0.0 102710
10 мая, пн
пн1000:00+7юв11665 0.0 102810
03:00+6ююв22695 0.0 102913
06:00+5ююв22715 0.0 102915
09:00+11юв45635 0.0 1030400
12:00+15юв44515 0.0 10291467
15:00+16юв34480 0.0 10281581
18:00+16вюв44570 0.0 10271362
21:00+10юв46730 0.0 102875
11 мая, вт
вт1100:00+7вюв33783 0.0 102941
03:00+6в33820 0.0 102834
06:00+5всв34860 0.0 102754
09:00+12всв46651 0.0 1026441
12:00+16в56584 0.0 1024829
15:00+19в45565 0.0 10231087
18:00+19всв45660 0.0 10221009
21:00+13всв47890 0.0 1021122